OPS 7218 (TRANSIT 16) 1 02807U 67048A 21021.88210874 .00000031 00000-0 32658-4 0 9998 2 02807 89.6335 54.8451 0018618 235.9269 298.3437 13.50250267641738 OPS 4947 (TRANSIT 17) 1 02965U 67092A 21021.88951903 .00000043 00000-0 47057-4 0 9999 2 02965 89.2681 162.0393 0048129 21.9927 88.6355 13.52962907629462 OPS 7034 (TRANSIT 18) 1 03133U 68012A 21021.73884218 .00000020 00000-0 16697-4 0 9999 2 03133 89.9916 271.7700 0074232 303.9146 115.7895 13.51089243328063 NNSS 19 (TRANSIT 19) 1 04507U 70067A 21021.84950816 .00000062 00000-0 71316-4 0 9993 2 04507 89.8886 244.1895 0173722 65.4947 296.4208 13.50758071481095 NNSS 20 (TRANSIT 20) 1 06909U 73081A 21021.72286212 .00000089 00000-0 80742-4 0 9991 2 06909 89.8156 287.4345 0157961 30.0390 330.9717 13.70582419558930 TRANSAT 1 10457U 77106A 21021.83489456 .00000036 00000-0 42281-4 0 9991 2 10457 89.7144 138.0682 0023837 303.2049 167.8618 13.48636867126709 NOVA 1 1 12458U 81044A 21021.84982590 .00000010 00000-0 18704-5 0 9994 2 12458 89.9097 112.7489 0013497 354.6725 127.3632 13.23028650915696 NOVA 3 1 15362U 84110A 21021.87835686 .00000033 00000-0 58784-4 0 9990 2 15362 90.0787 62.6464 0030815 208.7355 325.0711 13.22798362750874 OSCAR 30 1 15935U 85066A 21021.86395980 .00000011 00000-0 12621-5 0 9991 2 15935 90.1638 69.3439 0171230 81.5307 90.5643 13.35703174726101 OSCAR 24 1 15936U 85066B 21021.88632693 .00000024 00000-0 24469-4 0 9995 2 15936 90.1538 61.6886 0171657 86.6574 84.6747 13.35568481728030 POLAR BEAR 1 17070U 86088A 21021.43657648 .00000028 00000-0 17295-4 0 9992 2 17070 89.5361 261.9210 0040721 105.8010 66.6974 13.74815415714323 OSCAR 27 1 18361U 87080A 21021.43612822 .00000029 00000-0 35628-4 0 9995 2 18361 90.3158 17.6998 0102857 299.6449 59.4486 13.44510977635510 OSCAR 29 1 18362U 87080B 21021.72348164 -.00000017 00000-0 -40595-4 0 9991 2 18362 90.3162 17.9918 0104982 318.2793 217.2057 13.44105708635152 OSCAR 23 1 19070U 88033A 21021.83687998 .00000063 00000-0 10642-3 0 9998 2 19070 90.3561 319.7639 0191912 105.7256 308.5565 13.27478792585572 OSCAR 32 1 19071U 88033B 21021.82420115 .00000057 00000-0 95214-4 0 9996 2 19071 90.3562 319.8392 0190184 94.2490 319.5875 13.27661237585814 NOVA 2 1 19223U 88052A 21021.74235031 .00000033 00000-0 58476-4 0 9991 2 19223 89.9680 82.3676 0028717 253.8145 222.1919 13.22714067573367 OSCAR 25 1 19419U 88074A 21021.46661076 .00000040 00000-0 54991-4 0 9999 2 19419 89.9954 17.8234 0094858 301.5467 213.3990 13.42245064586754 OSCAR 31 1 19420U 88074B 21021.71366568 .00000006 00000-0 -29860-5 0 9998 2 19420 89.9960 17.9488 0092931 294.8945 240.8272 13.42259197586895